Content
SEND FEEDBACK

Daily
Averages
Monthly
Summary
Mexico

PUERTO MORELOS, QUINTANA ROO


Home > North America > Mexico > Quintana Roo
Elevation: 20 feet     Latitude: 20 51N     Longitude: 086 52W

WEATHER
 
SELECT A DAY
Number of Records: 163,931;   Date Range: 1/1/95 - 8/31/14
 
SHARE

PRINT THIS DATA

[ ← Previous Day ]
WEATHER ALMANAC - NOVEMBER 9, 2013
[ Next Day → ]
[ °C ]   °F
Weather ElementAverageHighLow
Temperature79.8 °F84.2 °F (8:41 am)75.2 °F (9:48 pm)
Dewpoint75.2 °F77 °F (11:42 am)73.4 °F (1:42 am)
Humidity86.2 %100 % (10:47 pm)74 % (8:41 am)
Barometer29.96 in30.00 in (8:41 am)29.91 in (2:42 am)
Wind Speed5.3 mph10.4 mph (8:41 am)
Weather ElementAverage
Visibility6.7 mi
Wind DirectionENE (57.5 °)

Weather ElementTotal
Precipitation---
Cooling Degree Days14.7 (Base 65)
Growing Degree Days29.7 (Base 50)
Averaged from 24 records on November 9, 2013
WEATHER CONDITIONS BREAKOUT
WIND DIRECTION BREAKOUT
WEATHER BY HOUR - NOVEMBER 9, 2013
[ °C ]   °F
Local TimeTemperatureDewpointHumidityBarometerVisibilityWind DirectionWind SpeedGust SpeedPrecipitationEventsConditions
1:42 AM78.8 °F73.4 °F83 %29.92 in7.0 miNE (40°)5.8 mphScattered Clouds
2:42 AM78.8 °F73.4 °F83 %29.91 in7.0 miNE (40°)8.1 mphMostly Cloudy
3:42 AM80.6 °F73.4 °F79 %29.92 in7.0 miEast (80°)8.1 mphMostly Cloudy
4:48 AM78.8 °F73.4 °F83 %29.93 in7.0 miENE (60°)8.1 mphMostly Cloudy
5:45 AM78.8 °F73.4 °F83 %29.94 in7.0 miENE (60°)3.5 mphMostly Cloudy
6:48 AM78.8 °F75.2 °F89 %29.96 in7.0 miENE (60°)5.8 mphMostly Cloudy
7:40 AM82.4 °F75.2 °F79 %29.98 in7.0 miNE (50°)8.1 mphMostly Cloudy
8:41 AM84.2 °F75.2 °F74 %30.00 in7.0 miENE (60°)10.4 mphMostly Cloudy
9:40 AM84.2 °F75.2 °F74 %29.99 in8.0 miNE (50°)8.1 mphMostly Cloudy
10:44 AM84.2 °F75.2 °F74 %29.98 in8.0 miNE (40°)9.2 mphMostly Cloudy
11:42 AM84.2 °F77.0 °F79 %29.97 in8.0 miENE (70°)8.1 mphMostly Cloudy
12:41 PM78.8 °F75.2 °F89 %29.94 in7.0 miEast (90°)5.8 mphMostly Cloudy
1:42 PM84.2 °F77.0 °F79 %29.92 in7.0 miEast (90°)9.2 mphMostly Cloudy
2:42 PM82.4 °F77.0 °F84 %29.92 in7.0 miENE (60°)5.8 mphMostly Cloudy
3:43 PM80.6 °F77.0 °F89 %29.93 in7.0 miEast (90°)4.6 mphMostly Cloudy
4:40 PM80.6 °F77.0 °F89 %29.94 in7.0 miNE (40°)3.5 mphMostly Cloudy
5:45 PM78.8 °F77.0 °F94 %29.95 in3.0 miNorth (10°)2.3 mphRainLight Rain
6:08 PM78.8 °F77.0 °F94 %29.96 in6.0 miCalmMostly Cloudy
6:44 PM77.0 °F75.2 °F94 %29.97 in6.0 miNE (50°)2.3 mphMostly Cloudy
7:41 PM77.0 °F75.2 °F94 %29.98 in6.0 miCalmMostly Cloudy
8:45 PM77.0 °F73.4 °F89 %30.00 in6.0 miNW (320°)4.6 mphMostly Cloudy
9:48 PM75.2 °F73.4 °F94 %29.99 in6.0 miCalmMostly Cloudy
10:47 PM75.2 °F75.2 °F100 %30.00 in6.0 miNNE (20°)5.8 mphMostly Cloudy
11:46 PM75.2 °F75.2 °F100 %29.95 in6.0 miCalmMostly Cloudy
Hourly data recorded from MMUN, located miles away from Puerto Morelos, Quintana Roo







STORIES FROM OUR PARTNERS